Flag for Germany Weather past 2 weeks in Rietberg, North Rhine-Westphalia, Germany

Now
41 °F

Broken clouds.


Feels Like: 33 °F
Forecast: 45 / 51 °F
Wind: 14 mph from Southwest

Location: Paderborn / Lippstadt

Current Time: Dec 21, 2014 at 11:53:02 AM

Latest Report: Dec 21, 2014 at 11:20 AM


Visibility: 5 mi

Pressure: 30.33 "Hg

Humidity: 81%

Dew point: 36 °F

Location of RietbergLocation

Historic Weather in Rietberg — Graph

°F

Rietberg temperature yesterday

Maximum temperature yesterday: 41 °F (at 12:50 AM)
Minimum temperature yesterday: 34 °F (at 7:50 PM)
Average temperature yesterday: 40 °F

Past Weeks' High & Low Weather Summary

 TemperatureHumidityPressure
High54 °F (Dec 18, 5:50 PM)100% (Dec 6, 10:20 AM)30.36 "Hg (Dec 6, 10:20 AM)
Low27 °F (Dec 15, 12:50 AM)56% (Dec 10, 5:20 AM)29.39 "Hg (Dec 12, 2:50 PM)
Average40 °F86%29.93 "Hg
* Reported Dec 6 10:20 AM — Dec 21 10:50 AM, Rietberg, Weather by CustomWeather, © 2014

Note: Actual official high and low records may vary slightly from our data, if they occured in-between our weather recording intervals... More about our weather records

Advertising

Rietberg weather history for previous 24 hours

 ConditionsComfort  
Time TempWeatherWind HumidityBarometerVisibility
10:50 AM
Dec 21
41 °FBroken clouds.14 mph87%30.33 "Hg5 mi
10:20 AM41 °FBroken clouds.12 mph87%30.33 "Hg5 mi
9:50 AM39 °FBroken clouds.12 mph93%30.33 "Hg5 mi
9:20 AM39 °FBroken clouds.13 mph87%30.33 "Hg5 mi
8:50 AM39 °FBroken clouds.14 mph87%30.33 "Hg5 mi
8:20 AM39 °FPassing clouds.10 mph93%30.33 "Hg5 mi
7:50 AM39 °FPassing clouds.12 mph93%30.33 "HgN/A
7:20 AM39 °FPassing clouds.12 mph93%30.33 "HgN/A
6:50 AM39 °FPassing clouds.12 mph93%30.33 "HgN/A
6:20 AM39 °FPassing clouds.13 mph93%30.33 "HgN/A
5:50 AM39 °FPartly cloudy.12 mph87%30.33 "HgN/A
5:20 AM39 °FPassing clouds.12 mph87%30.33 "HgN/A
4:50 AM39 °FPassing clouds.12 mph87%30.33 "HgN/A
4:20 AM39 °FPassing clouds.14 mph87%30.33 "HgN/A
3:50 AM37 °FPassing clouds.12 mph93%30.30 "HgN/A
3:20 AM37 °FPassing clouds.13 mph93%30.30 "HgN/A
2:50 AM37 °FPassing clouds.13 mph93%30.30 "HgN/A
2:20 AM37 °FPassing clouds.13 mph93%30.27 "HgN/A
1:20 AM37 °FPartly cloudy.12 mph93%30.27 "HgN/A
12:50 AM37 °FPassing clouds.10 mph93%30.24 "HgN/A
12:20 AM37 °FPassing clouds.13 mph93%30.24 "HgN/A
11:50 PM
Dec 20
37 °FPassing clouds.12 mph93%30.24 "HgN/A
11:20 PM37 °FPartly cloudy.10 mph93%30.24 "HgN/A
10:50 PM37 °FPartly cloudy.12 mph93%30.21 "HgN/A
10:20 PM37 °FPartly cloudy.14 mph93%30.21 "HgN/A
9:50 PM37 °FPartly cloudy.12 mph93%30.18 "HgN/A
9:20 PM37 °FPartly cloudy.12 mph93%30.15 "HgN/A
8:50 PM36 °FPartly cloudy.8 mph100%30.15 "HgN/A
8:20 PM36 °FPartly cloudy.10 mph100%30.12 "HgN/A
7:50 PM34 °FLight rain. Partly cloudy.15 mph100%30.12 "HgN/A
7:20 PM39 °FPartly cloudy.14 mph87%30.09 "HgN/A
6:50 PM39 °FPartly cloudy.12 mph87%30.07 "HgN/A
6:20 PM39 °FLight rain. Partly cloudy.13 mph87%30.07 "HgN/A
5:50 PM39 °FLight rain. Partly cloudy.17 mph93%30.04 "HgN/A
5:20 PM41 °FPartly cloudy.14 mph87%30.01 "HgN/A
4:50 PM39 °FPassing clouds.15 mph93%29.98 "HgN/A
4:20 PM39 °FLight rain. Partly cloudy.16 mph100%29.98 "HgN/A
3:50 PM41 °FLight rain. Partly sunny.18 mph87%29.98 "HgN/A
3:20 PM41 °FPartly sunny.18 mph81%29.95 "HgN/A
2:50 PM39 °FLight rain. Partly sunny.21 mph93%29.98 "HgN/A
2:20 PM39 °FLight rain. Partly sunny.17 mph87%29.98 "Hg6 mi
1:50 PM39 °FLight rain. Broken clouds.21 mph87%29.98 "Hg5 mi
1:20 PM41 °FLight rain. Partly sunny.18 mph81%29.98 "HgN/A
12:50 PM41 °FLight rain. Partly sunny.20 mph81%29.98 "HgN/A
12:20 PM41 °FLight rain. Partly sunny.18 mph81%30.01 "HgN/A
11:50 AM41 °FPartly sunny.16 mph76%30.01 "HgN/A
11:20 AM41 °FPartly sunny.20 mph76%30.04 "HgN/A
Weather by CustomWeather, © 2014

See weather overviewHow to use our weather pages